TCA7766 SVVG-SVMI

Flight info

Callsign TCA7766
Flight time N/A
Altitude 31000
Route VRA UW8 BRM UW40 PBL DCT ALDAK ALDAK1
Aircraft B738/M-SDE2E3FGHIRWXY/LB1

Departure

Time 2026-04-18 21:48
Airport Juan Pablo Pérez Alfonso Airport (SVVG)

Arrival

Time N/A
Airport Maiquetía Simón Bolívar International Airport (SVMI)
Time Latitude Longitude Altitude Speed Heading
2026-04-18 21:24 8.62341 -71.66201 285 ft 0 kts 172°
2026-04-18 21:42 8.62342 -71.66201 286 ft 2 kts 172°
2026-04-18 21:43 8.62366 -71.66205 284 ft 4 kts 166°
2026-04-18 21:43 8.62392 -71.66214 283 ft 4 kts 156°
2026-04-18 21:43 8.62405 -71.66220 283 ft 1 kts 153°
2026-04-18 21:45 8.62404 -71.66216 283 ft 3 kts 117°
2026-04-18 21:46 8.62410 -71.66151 284 ft 15 kts 81°
2026-04-18 21:46 8.62427 -71.66042 287 ft 16 kts 81°
2026-04-18 21:46 8.62444 -71.65938 286 ft 11 kts 79°
2026-04-18 21:46 8.62468 -71.65906 286 ft 0 kts 23°
2026-04-18 21:47 8.62520 -71.65905 282 ft 17 kts 354°
2026-04-18 21:47 8.62623 -71.65872 283 ft 12 kts 55°
2026-04-18 21:47 8.62628 -71.65828 284 ft 1 kts 134°
2026-04-18 21:47 8.62619 -71.65830 284 ft 2 kts 197°
2026-04-18 21:48 8.62605 -71.65895 282 ft 38 kts 261°
2026-04-18 21:48 8.62526 -71.66472 283 ft 125 kts 262°
2026-04-18 21:48 8.62371 -71.67578 481 ft 174 kts 261°
2026-04-18 21:48 8.62512 -71.68660 1704 ft 157 kts 303°
2026-04-18 21:49 8.63433 -71.69431 2180 ft 192 kts 338°
2026-04-18 21:49 8.64757 -71.69683 2962 ft 198 kts
2026-04-18 21:49 8.66125 -71.69242 3282 ft 225 kts 40°
2026-04-18 21:49 8.67010 -71.67856 3526 ft 252 kts 73°
2026-04-18 21:50 8.67445 -71.66063 4051 ft 269 kts 77°
2026-04-18 21:50 8.67923 -71.64213 4820 ft 275 kts 73°
2026-04-18 21:50 8.68549 -71.62371 5653 ft 279 kts 68°
2026-04-18 21:50 8.69315 -71.60567 6471 ft 282 kts 64°
2026-04-18 21:51 8.70194 -71.58805 7216 ft 286 kts 61°
2026-04-18 21:51 8.71178 -71.57039 7996 ft 290 kts 58°
2026-04-18 21:51 8.72233 -71.55291 8775 ft 293 kts 57°
2026-04-18 21:51 8.73346 -71.53545 9566 ft 297 kts 55°
2026-04-18 21:52 8.74504 -71.51795 10259 ft 304 kts 54°
2026-04-18 21:52 8.75749 -71.49960 10471 ft 328 kts 54°
2026-04-18 21:52 8.77088 -71.48023 10892 ft 341 kts 54°
2026-04-18 21:52 8.78470 -71.46046 11514 ft 346 kts 53°
2026-04-18 21:53 8.79872 -71.44056 12228 ft 349 kts 53°
2026-04-18 21:53 8.81296 -71.42044 12928 ft 353 kts 53°
2026-04-18 21:53 8.82736 -71.40016 13598 ft 357 kts 53°
2026-04-18 21:53 8.84197 -71.37962 14196 ft 362 kts 53°
2026-04-18 21:54 8.85674 -71.35889 14814 ft 365 kts 53°
2026-04-18 21:54 8.87163 -71.33798 15438 ft 368 kts 53°
2026-04-18 21:54 8.88665 -71.31689 16002 ft 372 kts 53°
2026-04-18 21:54 8.90187 -71.29554 16573 ft 377 kts 53°
2026-04-18 21:55 8.91725 -71.27394 17144 ft 380 kts 53°
2026-04-18 21:55 8.93280 -71.25211 17719 ft 384 kts 52°
2026-04-18 21:55 8.94849 -71.23008 18272 ft 388 kts 52°
2026-04-18 21:55 8.96436 -71.20780 18760 ft 391 kts 52°
2026-04-18 21:56 8.98033 -71.18536 19240 ft 395 kts 52°
2026-04-18 21:56 8.99645 -71.16271 19738 ft 397 kts 53°
2026-04-18 21:56 9.01270 -71.13987 20182 ft 401 kts 53°
2026-04-18 21:56 9.02888 -71.11713 20644 ft 404 kts 53°
2026-04-18 21:57 9.04536 -71.09396 21086 ft 407 kts 53°
2026-04-18 21:57 9.06197 -71.07061 21547 ft 411 kts 53°
2026-04-18 21:57 9.07874 -71.04701 22018 ft 413 kts 53°
2026-04-18 21:57 9.09556 -71.02336 22452 ft 416 kts 53°
2026-04-18 21:58 9.11254 -70.99947 22900 ft 419 kts 53°
2026-04-18 21:58 9.12964 -70.97541 23343 ft 422 kts 53°
2026-04-18 21:58 9.14667 -70.95143 23735 ft 424 kts 53°
2026-04-18 21:58 9.16395 -70.92711 24075 ft 427 kts 53°
2026-04-18 21:59 9.18133 -70.90264 24432 ft 429 kts 53°
2026-04-18 21:59 9.19882 -70.87801 24777 ft 432 kts 53°
2026-04-18 21:59 9.21639 -70.85326 25069 ft 436 kts 53°
2026-04-18 21:59 9.23414 -70.82826 25432 ft 437 kts 53°
2026-04-18 22:00 9.25191 -70.80321 25787 ft 439 kts 53°
2026-04-18 22:00 9.26984 -70.77795 26122 ft 442 kts 53°
2026-04-18 22:00 9.28171 -70.76122 26338 ft 444 kts 53°
2026-04-18 22:00 9.29980 -70.73571 26658 ft 446 kts 53°
2026-04-18 22:01 9.31795 -70.71011 26985 ft 449 kts 53°
2026-04-18 22:01 9.33621 -70.68435 27289 ft 451 kts 53°
2026-04-18 22:01 9.36055 -70.65001 27706 ft 455 kts 53°
2026-04-18 22:01 9.37305 -70.63236 27917 ft 456 kts 53°
2026-04-18 22:02 9.39156 -70.60624 28269 ft 457 kts 53°
2026-04-18 22:02 9.41004 -70.58015 28711 ft 456 kts 53°
2026-04-18 22:02 9.42804 -70.55387 29156 ft 455 kts 58°
2026-04-18 22:02 9.44365 -70.52593 29565 ft 455 kts 62°
2026-04-18 22:03 9.45812 -70.49782 29952 ft 455 kts 63°
2026-04-18 22:03 9.47242 -70.46921 30315 ft 455 kts 63°
2026-04-18 22:03 9.48666 -70.44059 30651 ft 455 kts 63°
2026-04-18 22:03 9.50103 -70.41193 30922 ft 457 kts 63°
2026-04-18 22:04 9.51563 -70.38308 30921 ft 462 kts 63°
2026-04-18 22:04 9.54514 -70.32533 30928 ft 458 kts 62°
2026-04-18 22:05 9.57426 -70.26865 30937 ft 457 kts 62°
2026-04-18 22:05 9.60378 -70.21120 30936 ft 461 kts 63°
2026-04-18 22:06 9.63348 -70.15333 30947 ft 464 kts 63°
2026-04-18 22:06 9.66329 -70.09518 30937 ft 465 kts 63°
2026-04-18 22:07 9.69306 -70.03710 30923 ft 463 kts 62°
2026-04-18 22:07 9.72264 -69.97935 30926 ft 460 kts 62°
2026-04-18 22:08 9.75206 -69.92190 30913 ft 458 kts 62°
2026-04-18 22:08 9.78114 -69.86508 30913 ft 456 kts 62°
2026-04-18 22:09 9.81033 -69.80802 30919 ft 455 kts 62°
2026-04-18 22:09 9.83953 -69.75088 30911 ft 457 kts 63°
2026-04-18 22:10 9.86884 -69.69352 30910 ft 459 kts 63°
2026-04-18 22:10 9.89833 -69.63578 30918 ft 461 kts 62°
2026-04-18 22:11 9.92771 -69.57821 30918 ft 463 kts 62°
2026-04-18 22:11 9.95735 -69.52011 30925 ft 463 kts 62°
2026-04-18 22:12 10.00179 -69.43292 30941 ft 463 kts 63°
2026-04-18 22:12 10.03134 -69.37492 30932 ft 462 kts 63°
2026-04-18 22:13 10.05738 -69.31541 30946 ft 461 kts 70°
2026-04-18 22:13 10.07821 -69.25434 30934 ft 460 kts 72°
2026-04-18 22:14 10.08832 -69.22399 30910 ft 448 kts 72°
2026-04-18 22:14 10.09827 -69.19441 30907 ft 439 kts 71°
2026-04-18 22:14 10.11827 -69.13597 30905 ft 438 kts 71°
2026-04-18 22:15 10.12842 -69.10664 30599 ft 440 kts 71°
2026-04-18 22:15 10.13854 -69.07748 30300 ft 436 kts 71°
2026-04-18 22:15 10.14861 -69.04852 29939 ft 434 kts 71°
2026-04-18 22:15 10.15863 -69.01971 29523 ft 431 kts 71°
2026-04-18 22:16 10.16860 -68.99102 29127 ft 429 kts 71°
2026-04-18 22:16 10.17849 -68.96256 28705 ft 427 kts 71°
2026-04-18 22:16 10.18822 -68.93454 28311 ft 424 kts 71°
2026-04-18 22:16 10.19798 -68.90639 27930 ft 421 kts 71°
2026-04-18 22:17 10.20769 -68.87842 27548 ft 419 kts 71°
2026-04-18 22:17 10.21733 -68.85060 27163 ft 416 kts 71°
2026-04-18 22:17 10.22693 -68.82291 26779 ft 414 kts 70°
2026-04-18 22:17 10.23646 -68.79541 26411 ft 412 kts 70°
2026-04-18 22:18 10.24594 -68.76804 26015 ft 411 kts 70°
2026-04-18 22:18 10.25542 -68.74066 25620 ft 409 kts 70°
2026-04-18 22:18 10.26483 -68.71349 25238 ft 408 kts 70°
2026-04-18 22:18 10.27423 -68.68633 24844 ft 407 kts 70°
2026-04-18 22:19 10.28360 -68.65924 24449 ft 406 kts 70°
2026-04-18 22:19 10.29295 -68.63221 24079 ft 405 kts 70°
2026-04-18 22:19 10.30215 -68.60561 23687 ft 404 kts 70°
2026-04-18 22:19 10.31146 -68.57866 23277 ft 404 kts 70°
2026-04-18 22:20 10.32076 -68.55175 22855 ft 402 kts 70°
2026-04-18 22:20 10.32998 -68.52505 22457 ft 399 kts 70°
2026-04-18 22:20 10.33914 -68.49854 22077 ft 396 kts 70°
2026-04-18 22:20 10.34823 -68.47222 21689 ft 394 kts 70°
2026-04-18 22:21 10.35727 -68.44603 21308 ft 391 kts 70°
2026-04-18 22:21 10.36624 -68.42002 20943 ft 389 kts 70°
2026-04-18 22:21 10.37518 -68.39411 20570 ft 387 kts 70°
2026-04-18 22:21 10.38406 -68.36836 20201 ft 385 kts 70°
2026-04-18 22:22 10.39289 -68.34275 19816 ft 384 kts 70°
2026-04-18 22:22 10.40170 -68.31720 19447 ft 382 kts 70°
2026-04-18 22:22 10.41046 -68.29177 19058 ft 380 kts 70°
2026-04-18 22:22 10.41906 -68.26680 18701 ft 379 kts 70°
2026-04-18 22:23 10.42775 -68.24156 18318 ft 377 kts 70°
2026-04-18 22:23 10.43639 -68.21645 17914 ft 376 kts 70°
2026-04-18 22:23 10.44500 -68.19145 17525 ft 373 kts 70°
2026-04-18 22:23 10.45352 -68.16668 17152 ft 370 kts 70°
2026-04-18 22:24 10.46198 -68.14208 16780 ft 367 kts 70°
2026-04-18 22:24 10.47036 -68.11770 16413 ft 364 kts 70°
2026-04-18 22:24 10.47872 -68.09340 16062 ft 361 kts 70°
2026-04-18 22:24 10.48667 -68.06932 15698 ft 359 kts 73°
2026-04-18 22:25 10.49306 -68.04492 15344 ft 356 kts 76°
2026-04-18 22:25 10.49871 -68.02045 14992 ft 354 kts 76°
2026-04-18 22:25 10.50410 -67.99645 14674 ft 351 kts 76°